TimeCST,TemperatureF,Dew PointF,Humidity,Sea Level PressureIn,VisibilityMPH,Wind Direction,Wind SpeedMPH,Gust SpeedMPH,PrecipitationIn,Events,Conditions,WindDirDegrees,DateUTC
12:15 AM,32.0,26.6,80,29.51,10.0,WNW,13.8,-,N/A,,Clear,290,2014-01-19 06:15:00
12:35 AM,30.2,26.6,86,29.50,10.0,WNW,16.1,-,N/A,,Clear,300,2014-01-19 06:35:00
12:55 AM,32.0,26.6,80,29.49,10.0,WNW,16.1,-,N/A,,Clear,300,2014-01-19 06:55:00
1:15 AM,30.2,24.8,80,29.50,10.0,WNW,15.0,-,N/A,,Clear,300,2014-01-19 07:15:00
1:35 AM,28.4,24.8,86,29.49,10.0,WNW,12.7,-,N/A,,Clear,300,2014-01-19 07:35:00
1:55 AM,28.4,24.8,86,29.50,10.0,WNW,12.7,-,N/A,,Clear,300,2014-01-19 07:55:00
2:15 AM,26.6,23.0,86,29.50,10.0,WNW,12.7,-,N/A,,Clear,290,2014-01-19 08:15:00
2:35 AM,24.8,23.0,93,29.50,10.0,WNW,9.2,-,N/A,,Clear,300,2014-01-19 08:35:00
2:55 AM,24.8,21.2,86,29.49,10.0,WNW,9.2,-,N/A,,Clear,290,2014-01-19 08:55:00
3:15 AM,23.0,19.4,86,29.50,10.0,WNW,8.1,-,N/A,,Clear,290,2014-01-19 09:15:00
3:35 AM,23.0,19.4,86,29.50,10.0,West,10.4,-,N/A,,Clear,280,2014-01-19 09:35:00
3:55 AM,23.0,19.4,86,29.50,10.0,WNW,8.1,-,N/A,,Clear,290,2014-01-19 09:55:00
4:15 AM,21.2,19.4,93,29.51,10.0,NW,8.1,-,N/A,,Clear,310,2014-01-19 10:15:00
4:35 AM,19.4,17.6,93,29.49,10.0,North,5.8,-,N/A,,Clear,350,2014-01-19 10:35:00
4:55 AM,17.6,17.6,100,29.49,10.0,WNW,4.6,-,N/A,,Clear,290,2014-01-19 10:55:00
5:15 AM,19.4,17.6,93,29.49,10.0,WNW,5.8,-,N/A,,Clear,300,2014-01-19 11:15:00
5:35 AM,17.6,15.8,93,29.49,10.0,NW,3.5,-,N/A,,Clear,310,2014-01-19 11:35:00
5:55 AM,17.6,15.8,93,29.49,10.0,West,5.8,-,N/A,,Clear,270,2014-01-19 11:55:00
6:15 AM,15.8,15.8,100,29.49,10.0,WNW,3.5,-,N/A,,Clear,290,2014-01-19 12:15:00
6:35 AM,14.0,10.4,86,29.47,10.0,Calm,Calm,-,N/A,,Clear,0,2014-01-19 12:35:00
6:55 AM,17.6,15.8,93,29.47,4.0,Calm,Calm,-,N/A,,Clear,0,2014-01-19 12:55:00
7:15 AM,14.0,14.0,100,29.45,0.8,Calm,Calm,-,N/A,,Mist,0,2014-01-19 13:15:00
7:35 AM,15.8,14.0,93,29.45,0.8,NNE,3.5,-,N/A,,Mist,20,2014-01-19 13:35:00
7:55 AM,10.4,8.6,92,29.47,0.2,Calm,Calm,-,N/A,Fog,Light Freezing Fog,0,2014-01-19 13:55:00
8:15 AM,10.4,8.6,92,29.49,0.2,NNW,4.6,-,N/A,Fog,Light Freezing Fog,340,2014-01-19 14:15:00
8:35 AM,10.4,8.6,92,29.49,2.5,Calm,Calm,-,N/A,,Clear,0,2014-01-19 14:35:00
8:55 AM,8.6,8.6,100,29.46,0.2,ESE,3.5,-,N/A,Fog,Light Freezing Fog,120,2014-01-19 14:55:00
9:15 AM,8.6,6.8,92,29.47,0.2,Calm,Calm,-,N/A,Fog,Light Freezing Fog,0,2014-01-19 15:15:00
9:35 AM,8.6,6.8,92,29.45,0.2,SE,5.8,-,N/A,Fog,Light Freezing Fog,130,2014-01-19 15:35:00
9:55 AM,10.4,8.6,92,29.47,0.2,Calm,Calm,-,N/A,Fog,Light Freezing Fog,0,2014-01-19 15:55:00
10:15 AM,14.0,12.2,93,29.48,2.0,NNW,3.5,-,N/A,,Overcast,330,2014-01-19 16:15:00
10:35 AM,15.8,14.0,93,29.49,0.8,North,5.8,-,N/A,,Overcast,10,2014-01-19 16:35:00
10:55 AM,15.8,15.8,100,29.49,0.2,NNE,4.6,-,N/A,Fog,Light Freezing Fog,20,2014-01-19 16:55:00
11:15 AM,17.6,17.6,100,29.50,5.0,Calm,Calm,-,N/A,,Mostly Cloudy,0,2014-01-19 17:15:00
11:35 AM,21.2,19.4,93,29.51,9.0,Calm,Calm,-,N/A,,Mostly Cloudy,0,2014-01-19 17:35:00
11:55 AM,23.0,21.2,93,29.50,10.0,East,3.5,-,N/A,,Overcast,100,2014-01-19 17:55:00
12:15 PM,23.0,23.0,100,29.53,10.0,Calm,Calm,-,N/A,,Overcast,0,2014-01-19 18:15:00
12:35 PM,24.8,23.0,93,29.54,10.0,Calm,Calm,-,N/A,,Overcast,0,2014-01-19 18:35:00
12:55 PM,24.8,23.0,93,29.55,10.0,North,3.5,-,N/A,,Overcast,350,2014-01-19 18:55:00
1:15 PM,24.8,23.0,93,29.54,8.0,North,3.5,-,N/A,,Overcast,10,2014-01-19 19:15:00
1:35 PM,26.6,24.8,93,29.55,6.0,North,4.6,-,N/A,,Overcast,360,2014-01-19 19:35:00
1:55 PM,26.6,24.8,93,29.55,7.0,NNE,4.6,-,N/A,,Overcast,20,2014-01-19 19:55:00
2:15 PM,24.8,23.0,93,29.56,4.0,North,8.1,-,N/A,,Overcast,10,2014-01-19 20:15:00
2:35 PM,23.0,23.0,100,29.57,5.0,NNE,10.4,-,N/A,,Overcast,20,2014-01-19 20:35:00
2:55 PM,23.0,23.0,100,29.56,7.0,NE,4.6,-,N/A,,Overcast,50,2014-01-19 20:55:00
3:15 PM,23.0,21.2,93,29.56,6.0,Calm,Calm,-,N/A,,Overcast,0,2014-01-19 21:15:00
3:35 PM,23.0,23.0,100,29.56,6.0,South,3.5,-,N/A,,Overcast,170,2014-01-19 21:35:00
3:55 PM,23.0,23.0,100,29.58,6.0,SSW,3.5,-,N/A,,Overcast,210,2014-01-19 21:55:00
4:15 PM,23.0,23.0,100,29.58,7.0,South,4.6,-,N/A,,Overcast,180,2014-01-19 22:15:00
4:35 PM,23.0,23.0,100,29.59,7.0,Calm,Calm,-,N/A,,Overcast,0,2014-01-19 22:35:00
4:55 PM,23.0,19.4,86,29.60,5.0,East,3.5,-,N/A,,Mostly Cloudy,90,2014-01-19 22:55:00
5:15 PM,19.4,19.4,100,29.60,3.0,East,4.6,-,N/A,,Partly Cloudy,90,2014-01-19 23:15:00
5:35 PM,19.4,19.4,100,29.61,2.5,East,5.8,-,N/A,,Mostly Cloudy,100,2014-01-19 23:35:00
5:55 PM,21.2,19.4,93,29.61,5.0,North,-9999.0,-,N/A,,Overcast,0,2014-01-19 23:55:00
6:15 PM,23.0,21.2,93,29.61,5.0,Calm,Calm,-,N/A,,Overcast,0,2014-01-20 00:15:00
6:55 PM,19.4,19.4,100,29.62,4.0,North,-9999.0,-,N/A,,Overcast,0,2014-01-20 00:55:00
7:15 PM,19.4,17.6,93,29.63,5.0,East,8.1,-,N/A,,Overcast,80,2014-01-20 01:15:00
7:35 PM,19.4,17.6,93,29.66,7.0,ENE,6.9,-,N/A,,Overcast,60,2014-01-20 01:35:00
7:55 PM,17.6,15.8,93,29.68,8.0,ENE,5.8,-,N/A,,Overcast,70,2014-01-20 01:55:00
8:15 PM,15.8,15.8,100,29.70,8.0,NNE,9.2,-,N/A,,Overcast,30,2014-01-20 02:15:00
8:35 PM,14.0,12.2,93,29.71,10.0,NE,6.9,-,N/A,,Overcast,50,2014-01-20 02:35:00
8:55 PM,14.0,10.4,86,29.71,10.0,ENE,6.9,-,N/A,,Overcast,70,2014-01-20 02:55:00
9:15 PM,14.0,10.4,86,29.72,10.0,ENE,6.9,-,N/A,,Overcast,60,2014-01-20 03:15:00
9:35 PM,12.2,10.4,92,29.73,7.0,North,-9999.0,-,N/A,Snow,Light Snow,0,2014-01-20 03:35:00
9:55 PM,12.2,8.6,85,29.73,7.0,ENE,5.8,-,N/A,Snow,Light Snow,60,2014-01-20 03:55:00
10:15 PM,10.4,8.6,92,29.75,10.0,North,-9999.0,-,N/A,,Overcast,0,2014-01-20 04:15:00
10:35 PM,10.4,8.6,92,29.75,9.0,North,-9999.0,-,N/A,,Overcast,0,2014-01-20 04:35:00
10:55 PM,10.4,6.8,85,29.77,9.0,North,-9999.0,-,N/A,Snow,Light Snow,0,2014-01-20 04:55:00
11:15 PM,8.6,6.8,92,29.78,7.0,North,-9999.0,-,N/A,Snow,Light Snow,0,2014-01-20 05:15:00
11:35 PM,8.6,6.8,92,29.79,2.5,NE,13.8,-,0.02,Snow,Light Snow,40,2014-01-20 05:35:00
11:55 PM,6.8,5.0,92,29.80,2.5,NE,15.0,-,0.04,Snow,Light Snow,40,2014-01-20 05:55:00